TimeCST,TemperatureF,Dew PointF,Humidity,Sea Level PressureIn,VisibilityMPH,Wind Direction,Wind SpeedMPH,Gust SpeedMPH,PrecipitationIn,Events,Conditions,WindDirDegrees,DateUTC
12:53 AM,46.9,39.0,74,29.79,10.0,Calm,Calm,-,N/A,,Clear,0,2012-11-09 06:53:00
1:53 AM,46.9,39.0,74,29.77,10.0,ESE,3.5,-,N/A,,Clear,110,2012-11-09 07:53:00
2:53 AM,45.0,39.0,80,29.77,10.0,Calm,Calm,-,N/A,,Clear,0,2012-11-09 08:53:00
3:53 AM,44.1,39.9,85,29.76,10.0,SSE,3.5,-,N/A,,Clear,150,2012-11-09 09:53:00
4:53 AM,42.1,37.9,85,29.77,10.0,WNW,3.5,-,N/A,,Clear,290,2012-11-09 10:53:00
5:53 AM,42.1,37.0,82,29.77,10.0,Calm,Calm,-,N/A,,Clear,0,2012-11-09 11:53:00
6:53 AM,41.0,36.0,82,29.78,10.0,Calm,Calm,-,N/A,,Clear,0,2012-11-09 12:53:00
7:53 AM,42.1,37.0,82,29.79,10.0,WNW,4.6,-,N/A,,Clear,300,2012-11-09 13:53:00
8:53 AM,46.9,39.9,77,29.80,10.0,NW,3.5,-,N/A,,Clear,320,2012-11-09 14:53:00
9:53 AM,52.0,43.0,71,29.78,10.0,Calm,Calm,-,N/A,,Clear,0,2012-11-09 15:53:00
10:53 AM,64.0,51.1,63,29.76,10.0,SW,8.1,-,N/A,,Clear,220,2012-11-09 16:53:00
11:53 AM,73.9,53.1,48,29.72,10.0,SSW,15.0,21.9,N/A,,Clear,200,2012-11-09 17:53:00
12:53 PM,77.0,52.0,42,29.69,10.0,South,15.0,23.0,N/A,,Clear,170,2012-11-09 18:53:00
1:53 PM,79.0,53.1,40,29.66,10.0,SSE,18.4,26.5,N/A,,Clear,160,2012-11-09 19:53:00
2:53 PM,80.1,52.0,38,29.64,10.0,South,13.8,24.2,N/A,,Clear,170,2012-11-09 20:53:00
3:53 PM,80.1,53.1,39,29.63,10.0,South,20.7,29.9,N/A,,Clear,180,2012-11-09 21:53:00
4:53 PM,77.0,54.0,45,29.63,10.0,South,17.3,26.5,N/A,,Clear,170,2012-11-09 22:53:00
5:53 PM,75.0,54.0,48,29.64,10.0,South,18.4,27.6,N/A,,Clear,170,2012-11-09 23:53:00
6:53 PM,73.0,55.0,53,29.64,10.0,South,21.9,29.9,N/A,,Clear,170,2012-11-10 00:53:00
7:53 PM,73.0,55.0,53,29.65,10.0,South,21.9,31.1,N/A,,Clear,170,2012-11-10 01:53:00
8:53 PM,72.0,55.9,57,29.64,10.0,South,18.4,28.8,N/A,,Clear,170,2012-11-10 02:53:00
9:53 PM,71.1,55.9,59,29.65,10.0,South,15.0,26.5,N/A,,Clear,180,2012-11-10 03:53:00
10:53 PM,70.0,55.9,61,29.63,10.0,South,19.6,29.9,N/A,,Clear,180,2012-11-10 04:53:00
11:53 PM,69.1,55.0,61,29.63,10.0,South,19.6,27.6,N/A,,Clear,190,2012-11-10 05:53:00